Location: Bonny Doon Airfield
(37.0704°N, 122.1252°W)
Time: 11:09:04
(UTC-07:00)

BREEZE M DEB (TANK) - Visible Passes

Search period start: 21 September 2014 00:00
Search period end: 01 October 2014 00:00
Orbit: 340 x 13823 km, 49.6° (Epoch: 18 September)

Date Brightness Start Highest point End Pass type
(mag) Time Alt. Az. Time Alt. Az. Time Alt. Az.
22 Sep 4.2 04:48:04 29° ENE 04:48:04 29° ENE 04:49:16 10° NE visible
25 Sep 4.3 06:11:58 10° WNW 06:13:22 13° NNW 06:14:40 10° N visible
27 Sep 4.0 05:41:23 17° NNW 05:41:23 17° NNW 05:43:06 10° NNE visible
29 Sep 4.6 05:10:47 16° NNE 05:10:47 16° NNE 05:11:29 10° NNE visible
